Location: ???? ?????
(30.0052°N, 31.2891°E)
Time: 10:46:18
(UTC+00:00)

CZ-2C R/B - Pass Details

Date: 26 May 2022
Orbit: 381 x 548 km, 35.0° (Epoch: 06 July)

Event Time Altitude Azimuth Distance (km) Brightness Sun altitude
Exits shadow 02:05:03 10° 200° (SSW) 1,496 3.1 -10.5°
Maximum altitude 02:07:44 22° 148° (SSE) 1,017 2.7 -10.1°
Drops below altitude 10° 02:10:33 10° 96° (E) 1,583 4.5 -9.5°
Sets 02:13:07 0° 81° (E) 2,498 6.2 -9.1°
